Wind_Speed
127 127 127 128 129 130 131 132 132 132 133 133 133 134 134 134 134 134 134 135 135 135 134 131 129 127 127 127 126 123 122 121 121 120 120 119 119 118 117 116 116 116 116 115 113 111 110 109 109 110 110 110 109 109 108 107 107 106 106 104 103 102 101 100 99 97 97 98 98 97 97 96 94 94 94 94 94 94 94 94 94 93 93 94 95
132 132 133 133 133 134 135 135 136 137 137 138 138 139 139 139 138 138 138 138 138 137 136 134 131 129 128 129 129 127 126 125 124 124 124 123 122 122 121 120 119 119 119 119 119 118 117 115 113 113 114 114 113 112 111 110 110 110 109 108 108 107 107 105 104 101 101 102 103 102 102 101 99 99 98 98 98 98 97 98 97 97 97 97 98
133 135 136 137 138 138 138 138 138 138 139 140 141 142 142 143 142 141 139 139 139 138 137 135 133 130 129 129 129 129 128 127 127 127 127 127 126 125 125 124 123 123 122 122 122 122 122 120 118 118 119 118 117 115 114 114 114 113 113 112 111 112 112 111 109 107 105 106 107 106 106 105 104 103 103 103 103 102 102 102 102 102 102 102 102
134 135 137 139 140 140 141 141 140 140 140 140 141 141 142 142 142 140 138 137 136 136 135 134 132 131 130 130 130 130 130 130 130 130 130 130 130 129 128 128 127 126 126 125 125 126 126 125 124 123 123 122 121 120 119 118 118 118 117 117 116 116 116 116 114 112 111 111 112 111 111 110 108 108 108 108 108 108 107 107 107 107 106 106 106
134 135 136 137 138 139 140 140 140 140 140 139 139 138 138 138 137 136 135 134 133 132 132 131 131 130 130 130 130 131 131 131 131 131 131 131 131 131 130 130 130 130 129 129 129 130 129 129 128 128 127 125 124 123 123 123 123 123 123 122 121 121 120 120 119 117 115 116 117 116 115 114 113 112 113 112 112 112 112 112 111 111 111 110 110
130 130 131 131 132 133 134 135 136 136 136 136 136 135 134 134 133 132 131 131 131 130 130 129 129 129 129 129 129 130 130 130 130 131 131 132 132 131 131 130 131 131 131 131 132 132 131 131 130 130 129 127 124 124 125 126 126 125 125 125 124 124 123 123 123 122 120 120 121 121 120 119 117 117 117 116 116 116 116 116 115 115 115 115 114
124 124 125 126 127 128 128 129 130 131 132 133 132 132 131 131 131 131 130 129 129 129 129 129 129 129 129 129 129 128 128 128 128 129 129 130 131 131 130 130 131 131 132 133 133 133 132 132 131 131 130 128 126 126 126 128 128 128 127 127 127 126 125 126 127 126 124 124 124 123 123 123 122 122 121 121 120 120 120 120 119 119 118 118 118
117 118 119 121 122 123 124 125 125 126 128 129 130 130 129 129 129 130 130 129 129 128 128 128 128 128 129 129 128 128 127 127 126 126 126 127 127 128 129 129 130 131 131 133 134 134 133 132 131 131 130 129 128 128 128 129 130 130 129 129 128 128 128 128 129 129 128 127 126 124 124 124 125 126 126 126 125 125 125 125 123 122 122 121 121
113 113 114 116 118 120 121 122 122 123 125 126 127 128 128 128 128 128 128 129 129 128 128 127 127 127 128 128 127 127 126 126 126 126 125 124 124 125 125 127 128 129 130 131 133 134 134 133 132 132 131 130 130 130 130 130 130 131 131 130 130 130 131 131 131 131 130 129 127 126 125 124 125 126 128 128 129 129 129 128 127 126 125 124 124
111 111 112 112 114 115 117 119 120 121 123 124 125 127 127 127 127 126 127 127 128 128 128 127 126 126 126 126 126 126 125 124 124 125 125 125 124 124 123 124 125 127 128 130 131 132 133 133 133 132 131 131 131 131 131 130 129 129 130 131 131 132 132 133 133 132 132 130 129 127 125 123 124 125 126 127 128 129 130 130 129 129 128 127 127
108 109 110 111 112 113 114 116 117 119 121 122 123 125 126 127 127 126 126 126 126 126 126 126 126 125 125 125 125 125 125 124 123 124 124 125 124 124 123 123 123 124 125 127 129 130 131 132 132 132 132 132 131 130 130 128 127 127 128 129 130 131 132 132 132 132 131 130 129 126 123 120 120 122 123 124 125 127 128 128 129 129 128 128 128
106 106 107 108 109 111 113 114 115 117 119 120 121 123 124 125 126 126 125 125 124 124 124 124 125 125 124 124 124 125 125 125 124 123 123 124 124 124 123 123 123 123 123 124 126 127 129 130 131 131 131 130 130 129 127 126 125 126 126 127 128 129 130 130 131 131 130 129 126 124 121 118 118 120 121 123 124 125 125 126 127 126 126 126 126
104 104 104 105 106 108 110 112 114 115 117 119 120 121 122 123 124 125 125 125 124 124 123 123 123 123 123 123 123 123 124 125 125 124 123 123 124 124 123 122 122 122 122 123 123 124 125 126 127 128 127 127 127 126 125 124 124 124 125 126 126 127 127 128 128 129 128 126 123 120 118 117 118 119 120 122 123 123 123 124 125 125 125 124 123
104 103 103 103 104 105 107 109 110 112 114 116 118 119 120 122 123 124 124 124 124 124 123 122 122 122 122 122 122 122 122 124 125 124 123 122 123 123 123 122 122 122 122 123 123 123 123 124 124 124 124 125 125 125 124 123 123 124 124 124 124 125 125 125 125 125 124 123 121 118 116 117 117 118 119 120 121 121 122 122 123 123 123 123 122
103 102 102 102 102 104 105 106 107 109 111 113 115 116 118 119 121 122 122 123 123 123 123 123 122 121 121 121 121 120 120 122 123 124 123 123 122 122 122 122 121 121 122 123 123 124 124 124 123 122 123 123 123 124 123 123 122 123 123 123 123 123 123 123 123 123 122 121 120 118 117 117 117 117 118 119 119 119 120 121 121 121 121 122 122
102 101 101 101 101 102 103 103 104 105 107 109 111 113 115 116 118 119 120 121 121 121 122 122 122 122 121 120 120 119 119 121 122 122 122 122 122 122 120 120 121 121 121 122 123 124 125 125 124 123 122 122 122 123 123 122 122 123 122 122 122 122 121 121 121 121 120 119 119 118 117 117 117 117 118 118 118 118 119 120 120 120 120 121 122
101 101 100 100 100 101 101 102 102 103 104 106 108 109 111 113 115 117 118 119 119 119 119 120 121 121 121 121 120 118 118 119 121 121 121 121 121 121 120 119 119 120 120 122 123 124 125 125 125 124 122 121 121 122 122 122 122 122 121 120 120 119 118 118 118 118 117 117 117 117 117 117 117 118 118 118 118 119 119 120 119 120 120 121 121
100 99 99 99 99 100 100 101 101 102 102 104 105 106 108 109 111 113 115 116 117 117 118 118 118 119 120 120 120 119 117 117 119 121 121 120 120 119 118 118 117 118 119 120 122 123 123 124 125 124 123 121 121 122 122 122 121 120 119 118 118 117 115 115 115 115 115 115 116 116 117 117 117 117 118 118 118 119 120 121 121 121 121 121 121
97 97 97 97 97 98 99 99 100 101 101 102 103 104 105 106 108 110 112 113 114 115 116 116 116 117 118 118 119 119 117 116 117 120 120 121 121 119 117 116 115 115 116 118 120 121 121 122 122 123 122 122 122 122 122 121 121 119 117 116 114 112 111 112 113 114 114 115 116 116 117 117 117 117 117 117 118 119 120 120 120 121 120 120 121
94 94 94 94 95 96 97 98 98 99 100 100 101 102 103 104 105 107 109 111 112 112 113 114 114 115 116 117 117 118 118 116 117 118 120 120 121 120 118 115 113 112 114 116 118 119 119 119 119 120 121 121 121 122 122 121 121 119 117 114 110 107 108 110 112 113 114 115 116 117 117 116 115 115 114 115 116 117 117 118 118 119 119 120 121
90 90 91 91 93 94 95 96 96 97 97 98 98 99 100 102 103 104 106 107 109 110 111 111 112 112 113 115 116 116 117 117 117 118 119 119 120 121 119 116 112 111 112 113 115 115 117 118 118 118 120 120 119 120 120 120 120 119 116 112 109 108 109 110 110 111 112 113 114 115 115 114 113 112 112 113 114 114 115 115 116 117 118 119 121
88 89 89 90 91 92 93 94 94 95 95 96 96 95 96 98 100 101 102 103 104 106 107 108 109 110 110 112 113 114 115 116 117 117 118 119 119 120 120 117 114 112 112 112 112 113 114 116 118 118 119 120 118 118 119 119 119 118 116 112 111 111 111 111 110 110 111 111 111 112 113 112 112 111 111 112 112 112 113 114 114 115 117 119 121
88 89 90 91 91 92 93 93 93 94 94 94 94 93 93 95 96 97 98 99 100 101 103 104 106 107 107 108 110 111 112 113 115 116 117 118 119 119 119 118 115 114 112 110 110 111 113 115 117 118 119 120 119 118 118 119 118 117 115 113 112 112 113 114 113 112 111 111 110 110 111 111 111 111 111 112 111 112 113 114 114 114 116 118 121
89 89 90 91 91 91 91 92 92 93 93 93 93 92 92 93 94 95 96 97 96 97 98 100 101 102 103 104 106 108 109 111 112 113 115 117 118 119 119 118 117 115 114 111 109 110 112 114 116 117 118 119 119 119 118 118 117 116 115 114 113 112 113 115 115 115 114 113 111 110 110 110 110 111 112 113 113 114 114 115 115 114 116 119 121
89 90 90 90 90 90 90 91 92 93 93 93 92 91 91 92 92 93 94 95 95 95 95 96 97 98 98 99 101 103 106 108 109 110 112 114 116 117 118 117 117 116 114 112 110 110 112 113 115 116 116 117 118 118 117 117 117 117 116 115 113 112 113 114 115 116 116 114 113 112 111 110 110 110 112 113 115 116 116 116 116 116 117 119 122
89 89 90 90 90 90 90 90 91 92 92 92 92 91 91 91 91 91 91 92 93 93 94 95 95 95 95 96 97 99 101 103 104 106 109 112 114 116 116 115 115 114 114 112 111 112 113 113 113 114 115 116 117 117 116 115 116 116 116 114 113 112 113 114 115 116 116 115 115 115 113 112 111 111 111 113 114 116 117 118 119 119 119 121 122
87 88 89 89 89 88 88 87 88 89 89 90 89 89 89 89 89 89 90 90 90 91 92 92 93 93 93 93 94 96 97 98 99 101 105 109 111 113 115 114 112 111 111 111 110 111 113 113 113 113 114 115 116 116 115 114 114 114 114 113 112 112 113 115 116 117 116 116 115 114 113 111 111 110 111 112 113 115 116 118 120 120 120 121 122
83 84 84 85 85 84 84 84 84 84 85 85 85 85 86 86 86 86 87 88 88 88 89 89 89 89 90 90 92 93 94 95 97 98 101 104 106 109 111 112 111 109 108 109 109 110 111 112 112 112 112 113 114 115 114 113 113 113 113 112 112 111 112 114 116 117 117 116 115 113 112 111 110 110 111 112 113 114 116 119 120 120 120 120 120
80 80 80 81 81 81 81 81 81 81 81 81 81 81 82 83 83 83 84 85 84 84 85 85 85 85 84 85 86 88 89 92 94 96 98 100 102 104 107 109 109 107 106 106 107 108 108 108 109 111 112 113 113 113 113 113 113 113 112 112 111 111 111 113 115 117 117 116 115 113 112 111 111 111 112 113 114 115 116 118 119 120 120 119 119
78 78 78 79 79 78 78 78 78 78 78 78 78 79 80 80 81 81 81 82 81 81 81 81 81 81 80 80 81 81 83 86 89 91 93 96 99 101 103 106 107 105 103 104 105 105 104 104 105 108 112 114 115 113 111 111 112 112 112 111 111 110 109 111 114 116 116 116 115 113 112 112 113 113 114 115 115 115 117 118 119 119 119 118 118
75 77 77 77 77 76 76 75 76 75 75 75 76 76 77 78 79 78 78 78 78 78 78 77 77 76 76 76 77 77 77 80 83 85 87 90 94 97 100 103 104 104 102 101 101 101 100 100 102 104 108 112 115 115 112 110 110 110 110 110 110 109 109 110 112 115 116 116 115 114 114 114 114 115 116 116 116 116 118 119 120 119 118 118 117
73 74 75 75 74 74 74 73 73 73 73 73 74 74 75 75 76 76 76 75 74 75 75 74 73 72 72 72 73 74 75 76 77 79 81 85 88 92 95 99 101 101 99 97 96 96 95 96 98 100 103 107 111 114 114 111 109 108 108 108 108 108 108 109 111 114 116 116 115 115 115 116 116 117 117 117 117 117 118 118 120 120 119 118 116
71 72 73 72 72 72 72 71 71 71 71 71 72 72 72 72 73 74 74 74 72 72 72 72 71 69 68 68 69 71 72 73 74 75 77 80 83 87 90 94 96 97 95 92 91 90 91 93 95 98 100 103 107 112 113 111 109 107 106 106 106 106 107 108 110 113 115 117 117 117 117 117 117 117 117 117 117 117 118 119 120 121 120 118 116
70 71 71 70 69 69 69 69 69 68 68 68 69 69 70 69 69 70 72 73 72 70 69 68 68 67 66 66 66 68 68 69 70 72 74 77 80 83 85 88 91 92 90 87 85 85 87 90 93 96 98 100 104 108 110 110 108 106 105 104 104 105 106 108 110 112 115 117 118 118 118 117 117 117 117 117 117 117 118 119 120 120 119 118 116
68 69 69 68 67 67 66 66 66 65 66 66 66 66 67 67 67 67 68 69 70 69 68 66 64 64 64 64 64 64 65 65 66 68 71 74 78 80 82 83 85 87 85 83 81 82 84 87 91 95 97 99 102 105 108 108 106 105 104 102 102 103 105 107 109 111 114 117 118 118 117 116 116 115 115 116 116 117 119 120 120 119 117 116 115
65 66 66 66 66 65 64 63 63 62 62 63 63 64 64 65 65 65 65 66 67 67 67 65 62 61 61 62 62 62 62 62 63 65 68 71 75 78 79 80 81 82 81 80 80 80 81 84 89 93 95 96 99 102 104 105 104 103 103 102 101 101 103 106 108 111 113 115 116 116 115 115 115 114 115 115 116 117 119 119 118 116 115 114 114
62 62 63 63 63 63 63 62 61 60 59 59 60 61 62 63 63 64 63 64 64 64 65 65 62 59 58 59 60 60 60 60 61 63 66 69 72 75 77 78 79 79 78 78 79 79 79 82 86 89 91 93 96 99 101 102 102 102 102 101 99 99 100 103 106 108 111 113 114 114 114 114 114 115 115 116 116 118 118 117 115 114 114 113 113
61 60 60 60 60 60 60 60 58 58 57 57 57 58 59 60 61 62 62 62 62 62 62 63 62 60 58 57 58 58 59 59 60 62 64 67 70 72 75 76 77 76 76 76 77 76 77 79 82 84 87 89 92 95 98 100 100 101 100 100 99 98 98 99 101 104 107 109 111 112 113 114 115 116 116 116 117 117 116 115 114 113 112 112 113
59 58 58 57 57 57 57 57 56 56 55 55 55 56 57 58 59 60 60 60 60 60 60 60 60 60 58 56 56 57 57 58 59 61 63 65 67 69 71 72 73 74 75 74 73 72 74 77 79 79 81 85 89 93 95 97 98 98 98 97 97 97 96 96 97 100 103 106 108 110 112 114 115 116 116 116 116 115 115 114 113 112 112 112 112
58 57 56 55 55 55 55 55 54 53 53 54 54 54 54 55 56 57 58 58 58 58 58 58 58 58 57 56 55 56 56 57 58 60 61 63 65 66 67 68 71 73 74 71 69 68 71 74 76 75 77 81 86 90 93 95 95 95 95 95 95 95 94 93 94 96 99 101 104 106 109 111 113 114 114 114 114 114 114 113 113 112 112 112 112
56 56 55 54 54 53 53 53 53 52 51 52 52 52 52 53 53 54 54 55 56 56 56 56 56 56 55 55 55 55 55 55 56 58 60 61 62 63 64 66 68 70 70 67 65 65 68 72 73 73 74 79 84 88 91 92 92 91 91 91 92 92 92 92 93 94 95 98 100 103 105 108 109 110 111 112 112 113 113 113 113 113 113 112 112
55 55 55 54 53 52 52 52 51 51 50 50 50 51 51 51 52 52 52 52 53 53 53 53 53 53 53 53 53 53 54 54 55 56 58 59 60 60 61 63 65 66 65 64 63 64 67 69 71 71 73 77 81 86 88 89 87 87 87 87 88 89 89 90 92 93 94 95 97 99 101 103 104 106 107 109 110 111 112 112 112 113 113 113 112
53 53 54 53 53 52 51 50 50 50 49 48 49 49 49 50 50 51 51 50 51 51 51 51 51 51 51 51 51 51 52 53 54 55 56 57 58 59 59 60 61 62 61 61 62 64 66 68 69 69 70 74 78 82 84 84 82 82 83 84 84 86 87 88 89 91 92 93 94 96 97 99 100 102 104 107 108 110 110 111 111 111 112 112 112
51 51 52 52 52 52 51 50 49 49 49 48 48 48 48 48 49 49 50 50 49 49 49 49 50 50 50 50 49 49 50 51 52 53 54 56 56 57 58 58 59 59 59 60 61 63 64 66 67 67 68 71 74 78 79 79 78 78 80 81 82 84 85 86 87 89 91 92 93 94 95 96 97 99 101 103 105 107 108 109 110 110 111 111 112
50 49 49 50 50 50 50 49 49 48 48 48 47 47 47 47 47 47 48 48 48 48 48 48 48 48 48 49 48 48 48 49 50 51 53 54 55 56 56 57 57 57 58 59 60 62 64 65 66 67 68 69 72 73 74 74 74 75 76 78 80 82 83 84 86 87 89 91 92 93 94 94 95 96 98 100 102 104 105 107 108 109 110 110 111
49 48 48 47 48 48 48 48 47 47 47 47 46 46 46 46 46 46 46 46 47 47 47 47 47 47 47 48 48 48 47 48 48 49 51 52 54 55 55 56 56 57 57 58 60 61 63 65 66 66 67 68 69 70 70 70 71 72 73 75 77 80 82 84 85 86 88 90 91 91 92 93 94 96 97 99 100 102 103 104 105 106 107 107 107
48 47 47 46 46 46 46 46 46 46 46 45 45 45 45 45 45 44 44 44 44 45 45 46 46 47 47 47 47 47 47 47 47 48 49 50 52 53 55 55 56 56 57 58 59 61 62 64 65 66 67 67 67 67 68 69 70 71 72 74 76 78 81 83 84 86 88 89 90 91 91 92 94 95 97 99 100 101 101 102 102 102 103 103 104
47 46 46 45 44 44 44 44 45 45 45 45 44 44 43 43 43 43 43 43 43 43 43 44 45 46 46 46 47 47 47 47 47 47 48 48 50 51 53 54 55 56 57 58 59 61 62 63 64 65 66 66 66 66 67 69 70 71 72 74 76 77 80 82 84 86 87 88 89 90 91 91 93 94 96 97 99 99 100 100 100 100 100 101 102
45 45 44 43 43 43 43 43 43 43 44 44 44 43 43 42 42 42 42 42 42 42 42 42 43 44 45 46 46 46 47 47 47 47 48 48 48 49 51 52 54 55 57 58 59 60 61 63 64 65 66 66 66 67 68 69 70 72 73 74 75 77 79 81 83 84 86 87 87 88 89 90 91 92 94 96 97 98 99 99 99 98 99 100 101
45 43 42 42 41 41 42 42 42 42 42 43 43 43 42 42 42 41 41 41 41 41 41 41 41 41 42 44 45 45 46 46 47 47 47 48 48 49 49 51 52 54 55 57 58 60 61 62 64 65 66 67 67 67 68 69 70 71 72 73 74 75 77 79 80 82 83 84 85 86 87 88 89 90 92 94 95 96 96 96 96 97 97 98 99
44 42 41 41 41 41 41 41 41 41 41 41 42 42 42 42 42 41 41 40 40 40 40 40 40 40 40 41 42 43 44 45 45 46 47 47 48 48 49 50 51 52 53 55 57 59 60 62 63 65 66 67 67 68 68 69 69 70 70 71 72 73 75 76 78 79 81 82 83 84 85 86 86 87 89 90 91 92 93 93 93 94 95 96 97
Wind_Direction
274 273 273 272 272 272 272 272 272 272 272 271 271 272 272 272 271 271 271 271 271 271 271 270 269 268 266 265 264 263 262 261 261 260 259 260 260 260 260 260 259 259 260 260 260 260 260 261 261 261 261 261 262 262 261 261 261 261 261 261 261 261 261 260 260 260 260 261 261 260 260 261 261 262 263 264 264 265 265 266 266 267 267 268 269
274 274 273 273 272 271 271 271 271 271 271 271 271 271 271 271 271 271 271 270 270 270 270 269 268 266 265 264 264 263 262 262 261 260 259 259 259 259 259 258 258 258 259 259 259 260 260 261 261 260 260 260 260 261 261 261 261 261 261 261 261 261 261 260 260 260 260 261 262 262 262 262 262 262 262 263 264 265 265 266 266 266 267 268 269
273 273 273 272 272 271 271 270 270 270 270 270 270 270 270 271 270 270 270 269 269 269 268 267 267 265 264 263 263 262 262 261 261 260 260 259 259 258 257 257 257 257 257 258 258 259 260 260 261 261 260 260 259 260 260 260 261 261 261 261 261 261 261 260 260 260 260 261 261 262 262 262 263 263 263 263 264 264 265 265 265 265 266 267 268
272 272 272 272 272 271 271 270 270 269 269 269 269 268 269 269 269 269 268 268 267 267 267 266 265 265 264 263 262 262 261 261 261 260 260 259 259 258 257 257 256 256 256 257 257 258 259 259 260 261 261 260 260 260 260 260 260 260 261 261 261 261 261 261 261 260 260 260 261 261 262 262 263 263 263 264 264 264 265 265 265 266 266 267 267
270 270 269 270 270 270 270 270 269 269 268 268 268 267 267 267 267 267 267 266 266 265 265 265 264 264 263 262 262 261 261 261 261 260 260 260 259 258 258 257 256 255 255 256 256 257 258 259 260 260 261 261 260 260 260 260 260 261 261 261 260 260 260 260 261 261 261 261 261 262 262 262 263 263 264 264 265 265 265 266 266 266 267 267 268
268 268 267 267 267 267 268 268 268 268 268 267 267 267 267 266 266 266 265 265 265 265 264 263 263 263 262 262 261 261 261 261 261 261 260 260 259 259 258 257 256 255 255 255 255 256 257 258 259 260 260 260 260 260 260 260 261 261 262 262 262 261 261 261 261 261 261 262 263 263 263 263 263 264 264 264 265 265 266 266 266 267 267 268 269
267 267 266 266 266 266 266 266 266 266 266 266 266 266 266 266 266 265 265 264 264 264 264 263 263 263 263 262 262 261 261 260 260 260 260 260 260 259 259 258 257 256 255 255 255 256 256 257 258 259 260 260 260 260 260 260 261 261 262 262 262 263 263 263 263 263 263 263 263 264 264 264 264 264 264 264 265 265 266 266 266 267 268 269 269
265 265 265 265 265 265 265 264 264 264 264 265 265 265 265 265 265 265 265 264 263 263 262 262 263 263 263 263 263 262 262 261 260 260 259 259 259 259 259 258 257 257 256 255 255 255 256 257 257 258 259 260 260 260 261 261 260 260 261 262 262 263 263 263 264 264 265 265 265 265 265 265 264 264 264 264 264 265 265 266 267 268 268 269 270
266 265 264 264 264 264 264 264 264 263 263 264 264 264 264 263 263 263 264 264 264 263 263 262 262 262 262 262 262 262 262 262 262 261 260 259 258 258 258 258 258 257 256 256 255 256 256 256 257 258 259 259 260 261 261 262 261 261 261 261 262 262 263 263 264 265 265 266 267 267 267 267 266 265 265 264 264 265 265 266 267 268 268 269 270
267 267 266 265 264 263 263 263 263 263 263 263 263 263 263 263 263 262 262 262 263 263 263 262 262 261 261 261 261 261 261 261 261 261 261 261 260 259 257 257 256 256 256 256 256 256 256 256 257 257 258 259 260 261 262 262 262 261 261 261 262 263 263 263 264 265 265 266 267 268 268 268 267 267 266 266 266 266 266 266 267 267 268 269 270
268 267 267 266 266 265 264 264 264 263 263 263 263 263 263 263 263 263 262 262 261 261 262 262 262 261 261 261 261 261 261 260 260 260 260 261 261 261 260 259 257 255 255 254 255 255 256 256 257 257 258 259 260 261 261 261 261 261 261 261 262 262 263 264 264 265 265 266 267 267 267 267 266 267 267 267 267 267 267 267 267 268 268 269 269
268 267 266 266 265 265 265 264 264 263 263 263 263 263 263 263 263 263 263 262 262 261 261 261 261 261 261 261 261 261 261 261 260 259 259 260 260 260 260 260 259 258 256 255 254 254 254 255 256 257 257 258 259 259 260 260 260 260 260 261 261 262 263 263 264 265 265 266 266 266 266 265 265 265 265 266 266 267 267 268 268 268 268 269 269
268 267 266 265 264 263 263 263 263 263 263 262 262 262 262 262 263 263 263 263 263 262 262 261 261 261 261 261 261 260 261 261 261 260 259 259 259 259 259 259 259 259 259 258 256 255 254 254 255 256 256 257 258 258 259 259 259 259 259 260 261 261 262 263 264 265 266 266 266 266 265 264 263 263 263 264 265 266 267 267 268 268 269 269 269
269 268 267 266 265 264 263 262 262 262 262 262 262 262 262 262 262 262 263 263 263 263 263 262 262 261 261 261 261 260 260 260 261 261 260 259 258 258 259 259 259 258 258 258 258 257 257 256 255 255 255 256 257 257 258 258 258 258 259 259 260 261 262 263 264 265 265 266 266 265 264 263 262 262 262 263 264 265 266 267 268 268 269 269 269
271 270 269 268 266 265 264 263 263 262 262 262 262 262 262 262 262 261 261 261 262 262 263 263 262 262 261 261 261 261 261 260 260 260 260 260 259 258 258 258 258 258 258 258 258 258 258 258 257 256 256 256 256 256 257 257 258 258 258 259 260 260 261 262 263 264 264 265 265 264 263 262 262 261 262 262 263 264 265 266 267 268 268 269 269
272 271 270 269 268 267 266 265 263 262 262 262 261 261 261 261 261 261 261 261 261 261 261 261 262 262 262 261 261 260 260 260 260 260 260 260 260 259 258 258 257 257 257 257 258 258 258 259 259 258 257 257 257 257 257 257 257 257 258 258 259 260 261 261 262 263 263 264 264 263 263 262 262 261 261 262 262 263 264 265 266 267 267 268 269
274 273 272 271 270 269 268 267 265 264 263 262 261 261 260 260 260 261 261 261 260 260 260 260 260 261 261 261 261 260 260 260 260 260 260 260 260 259 259 258 258 257 257 257 257 257 258 259 259 259 259 259 258 258 258 258 257 257 258 258 259 260 260 261 262 262 263 263 262 262 262 262 262 261 261 261 262 262 263 264 265 265 266 267 268
274 274 273 272 271 270 269 268 267 266 264 263 262 261 260 260 260 260 260 260 260 260 260 259 259 259 259 260 260 260 260 259 260 260 261 260 260 259 259 259 258 258 257 257 257 257 257 258 259 260 260 259 259 259 259 258 258 258 258 258 258 259 260 261 261 261 261 261 261 261 262 262 262 261 261 261 261 261 262 262 263 264 265 267 268
275 274 273 273 272 271 270 269 268 267 266 265 263 262 261 261 260 260 260 259 259 259 259 259 259 259 259 259 259 260 260 259 259 260 260 261 261 260 259 258 258 258 258 257 257 257 257 258 258 259 259 259 259 259 259 259 259 259 259 258 258 258 259 259 259 259 259 260 260 261 261 261 261 262 262 262 261 262 262 262 263 264 265 266 267
275 275 274 274 273 272 271 270 268 267 266 265 264 263 263 261 261 260 260 260 259 259 259 258 258 258 258 258 258 259 259 259 259 259 259 260 260 261 260 259 258 257 257 257 257 258 258 258 258 258 259 259 259 259 260 260 260 260 260 260 259 259 258 257 257 258 258 259 259 260 261 261 262 262 262 263 263 263 264 264 264 265 265 265 266
276 276 275 274 273 272 271 270 269 268 267 266 265 264 263 263 261 260 260 259 259 259 259 258 258 257 257 257 258 258 258 258 258 258 258 258 259 260 260 259 258 257 256 256 256 257 258 258 258 258 258 258 258 258 259 259 260 260 261 261 261 260 258 257 257 257 258 258 259 260 261 262 262 263 263 263 264 264 265 265 265 265 265 265 266
277 276 275 274 273 272 271 271 270 269 268 267 266 265 265 264 263 262 261 260 260 259 259 259 258 258 257 257 257 257 257 257 257 257 257 257 257 258 259 259 258 257 256 255 255 256 256 256 257 257 257 257 258 258 258 258 259 260 261 261 261 260 260 260 259 258 258 258 259 259 260 261 262 263 263 264 264 265 265 265 265 265 265 266 266
277 276 275 274 273 273 272 272 271 271 270 269 268 267 266 266 265 264 263 262 261 260 259 259 258 258 257 257 257 257 257 257 257 257 257 257 257 257 258 258 258 258 257 255 255 255 255 255 255 256 256 257 257 257 257 258 258 259 259 259 259 259 259 260 260 260 260 259 259 259 260 261 262 262 263 264 264 265 265 265 265 265 265 265 265
276 275 275 274 274 274 274 273 273 272 271 270 269 268 267 266 265 264 264 263 262 261 260 259 259 258 258 257 257 257 257 257 256 256 256 256 257 257 257 257 258 258 258 257 255 255 254 255 255 255 255 256 256 257 257 257 258 258 258 258 258 258 258 259 260 260 260 261 261 260 260 261 261 262 262 263 263 263 264 264 264 264 264 264 264
277 276 276 276 275 275 274 274 273 273 272 272 271 270 269 267 266 265 264 264 263 262 261 260 259 258 257 257 256 256 256 256 257 257 257 256 256 257 257 257 257 257 257 257 257 256 255 254 255 255 255 256 256 256 257 257 257 258 258 258 257 257 257 257 258 259 259 260 261 261 261 261 261 261 261 261 262 263 263 264 264 264 263 263 264
278 278 278 277 276 275 275 274 274 273 273 272 272 271 269 268 267 266 264 263 263 262 261 260 259 258 258 257 256 256 255 255 256 256 256 256 257 257 257 257 257 257 257 257 257 257 256 255 255 255 255 255 256 256 256 256 256 257 257 257 257 257 257 257 257 258 258 259 259 260 260 261 261 261 261 261 261 262 262 263 263 263 263 263 264
279 278 278 277 276 276 275 274 274 273 273 272 272 271 270 269 268 267 266 265 263 262 261 260 259 259 258 257 256 256 255 255 254 254 255 255 256 257 257 258 257 257 257 257 256 256 256 256 256 255 255 255 256 256 256 256 256 256 257 257 256 256 256 256 257 257 258 258 258 259 260 260 261 261 261 261 261 262 262 263 263 264 264 264 265
279 278 277 277 277 276 276 275 274 273 273 272 272 271 271 270 269 268 267 266 265 264 263 262 261 259 258 258 257 256 256 255 255 254 254 254 254 255 256 257 258 257 257 256 256 255 255 256 256 256 256 255 255 256 256 256 256 256 256 256 256 255 255 255 256 257 257 258 259 259 260 260 261 261 261 261 261 262 262 262 263 264 265 265 266
279 279 278 278 277 276 276 275 275 274 274 273 273 272 271 271 270 269 268 267 266 265 264 264 263 261 260 259 258 257 256 255 255 254 254 254 254 255 255 256 257 257 256 256 256 255 255 255 256 256 257 257 256 255 255 255 255 255 255 255 255 255 254 254 255 256 257 258 258 259 259 260 260 260 260 260 260 261 261 262 263 264 265 265 266
280 280 279 278 277 277 277 276 276 275 275 274 274 273 272 271 270 269 269 268 268 267 266 265 264 264 263 261 260 258 256 255 255 254 254 254 255 255 255 255 255 255 255 255 255 255 255 255 255 255 256 257 258 257 256 255 255 255 255 255 255 255 254 254 254 255 256 257 258 258 258 258 259 259 259 260 260 260 261 262 262 263 264 265 266
280 280 279 278 278 278 277 277 276 276 275 275 274 273 273 272 271 271 270 269 269 269 268 267 266 265 264 263 262 260 258 256 255 254 253 253 254 254 255 255 255 255 254 253 253 254 254 254 254 253 253 255 257 258 257 256 255 254 254 255 255 255 254 254 254 255 256 257 257 257 257 257 258 258 258 259 259 260 260 261 263 264 265 265 266
280 279 278 278 278 278 278 277 277 276 276 275 274 274 273 273 273 273 272 270 270 269 269 268 267 266 265 263 263 261 260 258 256 254 253 252 252 253 253 254 255 255 255 253 253 253 253 253 253 252 252 253 255 257 258 257 256 255 254 254 254 254 254 253 253 254 255 256 256 256 256 256 256 257 258 258 259 260 260 261 262 264 264 265 267
280 279 279 279 278 278 278 277 277 276 276 275 274 274 274 273 273 273 273 272 271 269 269 268 268 266 265 263 262 261 259 258 257 255 254 253 252 252 252 253 253 254 255 254 253 252 251 251 251 251 251 251 252 254 256 257 257 256 255 254 253 253 253 253 252 253 254 255 255 255 255 256 256 257 258 259 259 260 261 261 262 263 265 266 267
281 280 280 279 279 278 278 277 277 276 276 275 275 274 274 273 272 272 272 272 272 270 269 268 268 267 266 264 262 260 259 258 256 255 254 253 253 252 251 252 253 254 254 254 253 252 250 249 249 249 249 249 250 251 253 255 256 256 255 254 253 253 252 252 252 252 253 254 254 255 255 256 256 257 258 259 259 260 260 261 262 263 265 266 267
281 281 281 280 280 279 278 277 277 277 276 276 275 274 274 273 272 271 271 271 272 272 271 269 268 268 267 266 264 262 260 258 256 254 253 252 252 252 252 252 253 253 254 253 252 250 248 247 247 247 247 247 248 249 251 253 254 255 255 254 253 252 252 251 251 252 252 253 254 255 256 256 257 257 258 259 259 259 260 261 262 263 265 266 268
281 281 281 281 281 280 279 278 277 277 276 276 275 275 274 273 273 272 271 270 271 271 271 271 269 267 267 266 265 264 262 259 256 254 252 251 251 252 252 252 252 253 253 252 251 249 247 245 245 245 246 246 246 248 250 251 252 253 254 254 253 252 251 251 251 251 252 253 254 255 256 257 258 258 258 258 258 259 260 261 263 264 266 267 268
282 282 282 282 281 281 280 279 278 277 276 276 275 274 274 274 273 273 272 271 271 271 271 271 270 268 266 265 264 263 261 259 257 254 252 251 250 251 251 251 251 251 251 251 250 249 247 245 244 244 245 245 246 247 248 250 251 251 252 253 253 252 251 250 250 251 251 253 254 255 256 257 257 258 258 258 258 259 261 262 264 265 266 267 267
283 282 282 281 281 281 281 280 280 278 277 276 275 274 274 273 273 273 273 272 271 271 271 271 271 269 267 265 263 262 260 258 256 254 252 251 250 250 250 251 251 251 251 250 249 248 247 246 245 244 244 245 245 246 247 248 249 249 250 251 251 251 251 250 250 251 251 252 253 254 255 255 256 257 257 258 259 260 261 263 264 265 266 266 267
283 282 282 281 281 281 281 281 281 280 278 277 275 274 273 273 272 272 272 272 272 271 271 270 270 269 268 266 264 262 260 258 256 254 252 251 250 249 249 250 251 251 251 250 249 248 248 247 246 245 244 244 245 245 246 247 248 248 249 249 250 250 250 250 250 250 251 251 252 253 253 254 255 256 257 258 259 261 262 263 264 265 265 266 267
283 283 282 282 282 282 281 281 280 280 279 277 276 275 274 273 272 272 272 271 271 270 270 269 269 268 267 266 264 261 259 257 255 254 252 251 251 250 250 249 250 251 251 250 249 248 248 247 247 245 244 244 245 245 246 247 247 248 248 248 249 249 250 250 250 250 250 251 251 252 252 253 254 255 257 258 259 261 262 263 264 265 265 266 266
284 284 283 283 282 282 282 281 281 280 279 277 277 276 274 273 272 271 271 271 270 270 269 268 268 267 266 264 263 261 259 257 255 253 252 251 251 250 250 249 249 250 251 251 250 248 247 247 246 245 243 243 243 244 246 246 247 248 248 248 248 249 249 250 250 250 250 251 251 252 253 253 254 255 256 257 258 260 261 262 263 264 265 266 266
285 285 285 284 283 283 282 281 281 280 279 278 277 276 275 275 274 273 271 270 270 269 269 268 267 266 265 263 261 260 259 257 255 253 252 251 250 250 249 249 249 250 250 250 249 248 247 247 246 245 243 242 243 244 245 246 247 247 248 248 249 249 249 250 250 251 251 251 251 252 253 254 255 255 256 257 258 259 260 261 262 263 264 265 266
285 285 285 285 285 284 283 283 282 281 280 279 278 277 276 275 275 274 273 272 270 269 269 268 267 266 264 263 261 259 257 256 255 253 252 251 250 249 249 248 248 249 249 249 248 248 247 247 246 246 244 243 244 244 246 247 247 248 248 249 249 249 249 250 250 251 252 252 252 253 253 254 255 255 256 256 257 258 259 260 261 262 263 264 266
284 285 285 285 285 285 285 284 284 283 282 281 279 278 277 276 275 274 274 273 271 270 269 268 267 266 265 263 261 259 257 256 254 253 252 251 250 250 249 248 248 248 247 247 247 246 247 247 247 246 245 245 245 245 246 247 247 247 248 248 248 249 249 249 250 250 251 252 253 253 254 254 254 255 255 256 257 258 259 260 261 262 263 264 265
284 284 284 284 285 285 285 285 284 283 283 282 280 279 277 276 275 274 273 272 272 271 269 268 267 266 265 264 263 260 258 256 255 253 252 251 251 250 249 249 248 247 246 246 245 245 246 246 246 246 245 245 245 246 246 247 247 247 247 247 248 248 248 248 249 249 250 251 252 253 254 254 255 255 256 256 257 258 259 260 260 261 262 263 264
284 284 283 284 284 284 284 284 284 283 282 282 280 279 277 276 275 273 272 272 271 270 269 268 267 266 265 264 263 261 259 257 255 254 253 252 251 251 250 249 248 247 246 245 245 245 245 246 246 246 245 245 245 245 246 246 246 246 246 246 246 247 248 248 248 249 249 250 251 252 252 253 254 255 256 256 257 258 258 259 260 260 261 262 263
284 284 284 283 283 283 284 284 284 283 282 281 280 279 278 276 275 274 272 271 270 269 268 267 266 265 264 263 262 261 260 258 256 254 253 252 251 251 250 249 249 248 247 246 246 245 245 246 246 246 246 246 246 246 245 245 244 244 244 243 244 244 245 246 247 248 248 249 250 250 251 252 252 253 254 255 256 257 258 259 260 261 262 262 263
283 283 283 283 283 283 284 284 284 284 283 282 281 280 278 277 275 274 273 271 270 269 268 266 265 264 263 262 261 260 259 258 256 254 253 252 251 251 250 250 249 248 247 247 246 246 246 246 247 247 247 247 247 246 245 244 244 243 243 242 242 242 243 244 245 246 247 248 249 250 250 251 252 253 254 255 256 258 259 260 261 262 263 263 264
283 284 284 284 284 285 285 284 284 283 282 282 281 280 279 277 276 275 274 273 271 270 268 266 265 263 262 261 260 259 258 257 256 255 253 251 251 250 250 250 249 249 248 247 247 247 247 247 247 248 247 247 247 246 246 245 244 244 243 243 243 243 243 244 245 246 248 249 249 250 251 251 252 253 254 255 256 258 259 260 261 262 263 264 265
285 285 285 285 286 286 286 285 284 282 281 280 280 280 279 278 276 275 274 273 272 271 270 268 266 264 263 261 259 258 257 257 256 255 254 252 251 250 250 249 249 249 248 248 247 247 247 247 247 248 248 248 248 247 247 247 247 246 246 246 245 245 245 246 247 248 249 250 251 251 252 252 253 254 255 256 257 258 260 261 263 264 264 265 266
286 287 287 287 287 287 286 284 283 281 280 279 279 279 278 278 278 277 275 274 273 272 271 270 269 267 265 263 261 260 258 257 256 255 254 253 252 250 250 249 249 249 248 248 247 247 247 247 247 248 249 249 249 249 249 249 249 249 249 249 249 249 249 249 249 250 251 251 252 253 254 254 255 255 256 257 258 260 261 262 263 264 265 266 267
Height
10456 10457 10457 10456 10456 10455 10454 10453 10453 10452 10452 10452 10452 10451 10451 10451 10452 10452 10452 10452 10453 10454 10456 10459 10461 10462 10463 10464 10466 10469 10471 10472 10473 10475 10476 10478 10480 10482 10483 10484 10487 10489 10489 10490 10491 10492 10493 10493 10494 10494 10493 10494 10496 10497 10500 10503 10505 10507 10510 10515 10517 10517 10520 10521 10522 10528 10527 10523 10526 10529 10528 10531 10533 10532 10533 10533 10532 10534 10535 10536 10537 10538 10538 10538 10537
10434 10434 10433 10433 10434 10433 10433 10433 10432 10432 10431 10431 10431 10430 10430 10430 10430 10431 10431 10431 10431 10432 10434 10436 10438 10441 10442 10444 10445 10447 10450 10453 10454 10455 10457 10460 10462 10463 10465 10468 10470 10472 10473 10475 10477 10476 10476 10478 10480 10479 10476 10479 10482 10483 10486 10488 10490 10492 10495 10500 10502 10502 10505 10506 10508 10515 10516 10511 10512 10516 10516 10518 10521 10520 10521 10521 10520 10522 10523 10523 10524 10525 10526 10526 10525
10415 10412 10410 10409 10409 10409 10410 10411 10412 10412 10411 10410 10409 10409 10409 10408 10408 10410 10411 10410 10410 10411 10412 10414 10416 10419 10421 10423 10425 10427 10429 10431 10433 10435 10437 10439 10441 10443 10446 10449 10453 10455 10457 10460 10461 10459 10460 10464 10465 10463 10460 10462 10467 10469 10472 10474 10475 10478 10480 10483 10486 10487 10488 10490 10494 10500 10503 10498 10498 10501 10502 10504 10507 10508 10508 10508 10507 10508 10510 10510 10511 10512 10513 10513 10512
10397 10394 10390 10387 10386 10385 10385 10386 10388 10389 10389 10389 10388 10388 10388 10388 10387 10388 10389 10390 10390 10390 10391 10393 10395 10397 10400 10401 10404 10406 10408 10410 10412 10414 10416 10418 10420 10423 10425 10429 10433 10436 10440 10443 10443 10442 10444 10448 10450 10447 10444 10446 10452 10455 10457 10459 10460 10462 10464 10466 10470 10472 10472 10474 10478 10484 10488 10485 10484 10486 10488 10491 10494 10494 10494 10494 10494 10495 10497 10497 10497 10498 10499 10499 10499
10377 10375 10372 10369 10367 10365 10363 10363 10363 10364 10365 10366 10366 10366 10366 10367 10367 10367 10368 10369 10370 10371 10372 10373 10374 10376 10378 10381 10383 10384 10387 10389 10391 10392 10394 10397 10399 10401 10405 10409 10412 10416 10421 10424 10425 10425 10428 10432 10433 10430 10428 10432 10438 10441 10442 10444 10444 10445 10447 10450 10453 10455 10456 10457 10460 10466 10471 10470 10469 10471 10474 10477 10480 10480 10479 10480 10480 10481 10482 10482 10483 10484 10484 10484 10484
10356 10355 10354 10352 10349 10347 10346 10344 10342 10341 10341 10342 10343 10345 10345 10346 10347 10348 10349 10349 10349 10350 10351 10353 10355 10356 10358 10360 10363 10365 10367 10369 10371 10372 10373 10375 10378 10380 10384 10388 10391 10395 10400 10404 10406 10407 10410 10415 10415 10413 10414 10419 10424 10426 10426 10427 10428 10429 10430 10433 10435 10437 10440 10441 10443 10447 10454 10455 10454 10457 10459 10461 10464 10465 10464 10465 10466 10465 10466 10466 10466 10467 10469 10470 10470
10335 10334 10333 10332 10331 10330 10329 10328 10326 10323 10321 10320 10321 10323 10324 10325 10325 10326 10328 10330 10331 10332 10332 10333 10334 10336 10337 10339 10342 10345 10347 10349 10351 10353 10354 10355 10358 10360 10364 10368 10372 10375 10380 10384 10386 10388 10393 10398 10399 10398 10400 10405 10409 10409 10409 10410 10412 10414 10415 10416 10417 10420 10423 10425 10425 10429 10435 10438 10438 10441 10443 10444 10448 10451 10449 10449 10451 10450 10447 10448 10450 10453 10455 10456 10456
10318 10316 10314 10312 10310 10310 10309 10309 10309 10307 10305 10303 10302 10303 10304 10305 10306 10306 10306 10308 10311 10313 10314 10315 10316 10316 10318 10319 10321 10324 10326 10329 10331 10333 10335 10337 10339 10341 10344 10348 10352 10356 10361 10365 10366 10370 10376 10380 10382 10383 10385 10389 10391 10391 10391 10393 10395 10398 10400 10401 10402 10404 10406 10407 10408 10411 10416 10420 10423 10424 10425 10426 10430 10433 10434 10433 10435 10433 10430 10431 10436 10439 10440 10440 10441
10297 10297 10296 10294 10292 10291 10290 10290 10290 10289 10287 10286 10284 10284 10285 10286 10287 10288 10287 10287 10288 10291 10293 10296 10298 10298 10299 10301 10303 10305 10306 10308 10309 10311 10314 10317 10320 10323 10326 10329 10333 10337 10342 10346 10348 10352 10357 10361 10364 10367 10368 10371 10372 10373 10375 10377 10379 10383 10386 10386 10386 10387 10388 10389 10391 10394 10398 10403 10407 10408 10408 10409 10411 10414 10416 10416 10417 10417 10416 10418 10422 10423 10423 10425 10427
10277 10276 10275 10275 10274 10273 10272 10271 10270 10269 10267 10267 10266 10264 10264 10265 10267 10269 10270 10270 10269 10270 10272 10274 10277 10280 10281 10282 10284 10286 10288 10290 10291 10291 10292 10295 10298 10303 10307 10312 10316 10319 10323 10327 10330 10333 10338 10342 10345 10349 10351 10353 10355 10357 10360 10361 10363 10368 10370 10369 10369 10370 10370 10371 10375 10378 10380 10385 10389 10392 10393 10394 10394 10395 10396 10397 10397 10399 10402 10404 10405 10406 10409 10411 10412
10259 10257 10256 10255 10254 10253 10252 10251 10249 10248 10246 10245 10245 10245 10244 10244 10245 10248 10250 10252 10252 10253 10254 10255 10256 10259 10262 10264 10265 10267 10269 10271 10273 10274 10274 10275 10278 10281 10285 10291 10296 10301 10306 10310 10313 10316 10319 10322 10326 10330 10333 10337 10340 10342 10343 10345 10348 10351 10353 10352 10352 10353 10353 10355 10359 10361 10363 10367 10372 10375 10378 10380 10380 10378 10378 10378 10379 10381 10384 10386 10388 10391 10394 10395 10396
10239 10239 10238 10237 10236 10234 10232 10230 10229 10227 10226 10225 10225 10225 10224 10224 10224 10226 10228 10231 10233 10235 10237 10238 10239 10240 10242 10245 10248 10248 10249 10251 10253 10256 10257 10257 10259 10261 10266 10270 10274 10280 10286 10291 10296 10300 10302 10305 10308 10311 10315 10319 10322 10323 10326 10330 10332 10334 10334 10335 10336 10336 10337 10339 10341 10343 10346 10350 10354 10359 10364 10366 10364 10363 10363 10362 10361 10363 10366 10368 10371 10375 10377 10378 10381
10218 10219 10219 10218 10218 10217 10214 10211 10210 10208 10207 10206 10206 10206 10206 10206 10206 10206 10208 10210 10212 10215 10219 10221 10222 10223 10224 10226 10230 10232 10232 10231 10232 10235 10239 10240 10240 10243 10247 10252 10256 10259 10264 10269 10275 10280 10285 10289 10291 10294 10299 10302 10302 10305 10310 10314 10315 10317 10317 10317 10319 10321 10322 10323 10324 10325 10328 10332 10337 10344 10349 10348 10346 10348 10349 10347 10346 10349 10352 10354 10354 10357 10359 10361 10366
10199 10199 10200 10200 10199 10198 10196 10194 10194 10193 10191 10189 10189 10189 10189 10189 10189 10189 10190 10192 10194 10196 10199 10201 10204 10206 10207 10209 10211 10214 10217 10216 10213 10214 10219 10222 10223 10225 10229 10235 10239 10242 10245 10249 10253 10258 10264 10270 10274 10278 10282 10284 10285 10288 10293 10296 10297 10298 10299 10300 10303 10306 10308 10308 10309 10310 10312 10316 10321 10327 10331 10329 10329 10333 10334 10333 10334 10337 10338 10339 10339 10340 10342 10344 10347
10181 10180 10181 10182 10181 10179 10178 10178 10178 10178 10176 10174 10173 10173 10172 10171 10172 10172 10173 10175 10178 10179 10180 10182 10184 10187 10190 10191 10193 10197 10200 10200 10198 10197 10199 10202 10204 10207 10212 10217 10221 10225 10229 10232 10235 10239 10243 10247 10254 10261 10265 10267 10269 10273 10276 10279 10279 10278 10280 10285 10289 10291 10292 10294 10295 10295 10297 10300 10303 10307 10310 10311 10313 10317 10319 10320 10323 10324 10324 10324 10325 10326 10327 10327 10328
10162 10162 10162 10162 10161 10159 10159 10160 10160 10160 10159 10157 10157 10156 10155 10154 10154 10154 10154 10157 10161 10162 10163 10165 10166 10167 10170 10172 10175 10180 10184 10182 10180 10181 10182 10183 10185 10188 10194 10200 10204 10208 10213 10216 10217 10220 10224 10227 10234 10240 10245 10251 10254 10255 10258 10261 10260 10260 10264 10270 10273 10274 10277 10281 10282 10281 10283 10285 10286 10288 10291 10294 10298 10301 10304 10307 10310 10311 10310 10309 10311 10313 10312 10311 10311
10143 10143 10143 10142 10142 10140 10140 10140 10141 10141 10140 10140 10139 10139 10139 10139 10138 10137 10136 10138 10142 10144 10145 10148 10149 10150 10151 10153 10155 10161 10167 10167 10163 10163 10166 10166 10167 10170 10176 10182 10187 10192 10197 10200 10200 10203 10207 10210 10214 10218 10224 10233 10237 10236 10238 10241 10242 10243 10250 10255 10257 10259 10264 10267 10267 10267 10269 10270 10270 10271 10273 10277 10281 10285 10288 10292 10296 10297 10296 10296 10298 10298 10296 10295 10297
10124 10124 10124 10123 10122 10121 10120 10120 10120 10120 10120 10120 10120 10120 10121 10121 10121 10120 10118 10120 10123 10125 10126 10129 10132 10134 10134 10136 10137 10140 10148 10152 10149 10146 10148 10149 10150 10153 10158 10164 10169 10175 10181 10183 10184 10187 10191 10195 10197 10200 10206 10214 10217 10216 10218 10222 10223 10227 10235 10238 10240 10246 10252 10254 10253 10252 10254 10254 10254 10255 10257 10259 10263 10268 10272 10277 10280 10281 10281 10282 10283 10283 10283 10283 10285
10106 10106 10106 10106 10104 10103 10101 10100 10099 10099 10100 10100 10100 10100 10102 10103 10103 10102 10101 10102 10105 10107 10108 10110 10114 10117 10118 10119 10121 10121 10127 10134 10134 10130 10131 10132 10131 10134 10140 10146 10153 10160 10164 10165 10166 10171 10176 10180 10183 10185 10189 10194 10196 10197 10199 10202 10205 10211 10218 10220 10225 10235 10241 10238 10235 10236 10237 10238 10239 10240 10242 10244 10247 10252 10256 10260 10263 10265 10267 10269 10270 10271 10271 10271 10270
10090 10089 10089 10089 10086 10084 10082 10080 10080 10079 10079 10080 10081 10081 10082 10083 10084 10084 10083 10084 10086 10089 10092 10093 10096 10099 10100 10101 10103 10104 10107 10114 10117 10114 10113 10114 10113 10114 10118 10127 10136 10144 10148 10148 10150 10154 10159 10164 10168 10171 10172 10175 10178 10179 10181 10183 10186 10192 10197 10203 10213 10223 10223 10217 10217 10220 10222 10224 10225 10226 10227 10230 10233 10237 10242 10246 10248 10250 10253 10256 10258 10259 10258 10256 10255
10074 10073 10073 10071 10067 10065 10062 10060 10060 10060 10059 10060 10061 10063 10063 10063 10064 10065 10064 10065 10068 10069 10072 10075 10077 10081 10084 10082 10083 10087 10089 10092 10096 10096 10095 10096 10097 10095 10097 10105 10116 10124 10128 10131 10135 10140 10144 10146 10150 10154 10154 10156 10161 10164 10165 10167 10170 10172 10178 10188 10198 10201 10198 10198 10203 10207 10207 10209 10212 10213 10215 10218 10221 10226 10230 10232 10235 10237 10239 10241 10243 10244 10243 10241 10240
10058 10057 10054 10052 10049 10047 10044 10042 10042 10042 10042 10042 10043 10046 10048 10045 10044 10047 10047 10048 10051 10052 10054 10056 10057 10062 10067 10066 10066 10069 10072 10072 10074 10076 10076 10077 10078 10078 10078 10085 10095 10101 10106 10113 10121 10126 10129 10130 10132 10135 10135 10136 10143 10147 10149 10152 10154 10157 10164 10173 10178 10178 10179 10183 10187 10190 10192 10196 10200 10201 10203 10206 10209 10213 10216 10218 10221 10224 10225 10226 10227 10228 10227 10226 10225
10041 10039 10036 10033 10032 10030 10028 10027 10026 10025 10026 10026 10026 10030 10032 10029 10027 10029 10029 10029 10033 10034 10036 10038 10038 10042 10049 10051 10051 10053 10054 10054 10055 10057 10059 10059 10059 10060 10061 10066 10074 10078 10083 10095 10105 10109 10111 10114 10115 10118 10119 10120 10124 10129 10132 10136 10140 10145 10151 10155 10158 10162 10164 10165 10168 10174 10178 10182 10185 10189 10191 10193 10196 10200 10202 10204 10207 10210 10210 10209 10209 10210 10212 10211 10211
10024 10021 10019 10017 10016 10015 10015 10014 10011 10009 10009 10009 10009 10012 10014 10012 10011 10012 10010 10011 10015 10018 10019 10020 10021 10025 10031 10034 10035 10036 10036 10036 10037 10039 10042 10042 10041 10042 10044 10049 10055 10059 10063 10074 10085 10090 10093 10096 10097 10100 10104 10105 10107 10111 10116 10121 10125 10131 10136 10138 10142 10149 10151 10151 10155 10159 10162 10166 10170 10174 10177 10179 10182 10186 10188 10189 10191 10192 10192 10191 10192 10194 10196 10196 10195
10006 10004 10003 10002 10001 10000 10000 9999 9995 9993 9992 9991 9992 9995 9995 9994 9995 9995 9994 9994 9997 10000 10002 10002 10003 10007 10012 10016 10018 10020 10019 10019 10021 10023 10025 10025 10024 10025 10027 10030 10036 10041 10046 10055 10064 10069 10073 10077 10079 10083 10088 10091 10092 10095 10100 10107 10111 10115 10118 10122 10128 10134 10137 10139 10142 10144 10147 10153 10156 10157 10160 10163 10166 10170 10173 10173 10174 10175 10176 10177 10177 10178 10180 10180 10179
9991 9989 9986 9985 9984 9983 9984 9983 9980 9978 9976 9975 9975 9976 9976 9975 9977 9978 9977 9977 9979 9981 9983 9985 9986 9989 9994 9998 10000 10002 10002 10004 10007 10008 10007 10005 10006 10007 10008 10011 10017 10023 10028 10037 10046 10050 10053 10058 10063 10068 10071 10073 10075 10078 10084 10091 10095 10099 10103 10108 10115 10120 10122 10124 10128 10130 10134 10138 10139 10139 10144 10147 10150 10154 10156 10156 10158 10160 10162 10162 10161 10162 10163 10163 10162
9978 9975 9970 9968 9968 9967 9967 9967 9965 9962 9960 9958 9958 9958 9958 9958 9959 9960 9959 9960 9962 9964 9965 9968 9971 9973 9977 9981 9983 9985 9987 9988 9992 9993 9989 9987 9988 9990 9990 9993 10000 10007 10012 10020 10029 10034 10036 10039 10044 10049 10053 10056 10058 10062 10069 10076 10081 10085 10089 10094 10102 10108 10109 10109 10111 10113 10116 10119 10121 10124 10129 10132 10135 10139 10140 10141 10143 10145 10146 10146 10145 10146 10147 10146 10147
9962 9961 9957 9954 9953 9952 9950 9950 9949 9947 9945 9943 9943 9943 9942 9941 9943 9944 9943 9942 9945 9947 9948 9951 9955 9957 9961 9965 9967 9969 9972 9973 9975 9975 9972 9971 9973 9974 9974 9976 9983 9990 9996 10003 10011 10015 10018 10021 10026 10031 10035 10039 10042 10046 10053 10060 10066 10070 10074 10078 10085 10093 10096 10094 10094 10097 10100 10102 10106 10111 10115 10118 10121 10124 10125 10127 10128 10130 10130 10130 10130 10130 10131 10131 10133
9947 9946 9944 9941 9939 9937 9936 9935 9933 9932 9931 9929 9929 9929 9928 9926 9926 9927 9926 9926 9928 9931 9933 9935 9937 9940 9945 9949 9951 9953 9957 9958 9957 9957 9958 9958 9959 9959 9960 9961 9966 9973 9980 9986 9991 9996 10001 10008 10014 10017 10019 10021 10024 10030 10037 10044 10048 10053 10057 10062 10068 10077 10083 10083 10081 10081 10084 10087 10091 10097 10102 10104 10105 10107 10109 10110 10112 10113 10114 10114 10114 10115 10115 10116 10118
9934 9931 9929 9927 9925 9924 9923 9921 9919 9919 9918 9917 9916 9914 9912 9911 9911 9912 9912 9912 9913 9915 9918 9921 9922 9925 9930 9933 9934 9937 9941 9941 9939 9942 9945 9945 9944 9944 9945 9946 9948 9955 9964 9968 9972 9979 9988 9996 10002 10006 10007 10005 10006 10011 10020 10027 10032 10036 10041 10046 10052 10061 10069 10070 10067 10066 10068 10072 10077 10083 10086 10088 10089 10091 10092 10093 10095 10097 10098 10097 10098 10099 10101 10102 10103
9922 9918 9915 9913 9912 9911 9910 9909 9907 9905 9905 9904 9902 9901 9898 9896 9896 9897 9899 9900 9900 9900 9903 9906 9908 9910 9915 9918 9918 9920 9923 9923 9923 9927 9930 9931 9930 9930 9930 9930 9931 9937 9945 9951 9956 9964 9975 9983 9989 9993 9994 9993 9992 9993 9999 10008 10015 10021 10026 10031 10036 10045 10052 10056 10054 10052 10053 10057 10062 10067 10070 10071 10073 10075 10075 10077 10079 10081 10081 10082 10083 10084 10086 10088 10089
9910 9905 9902 9901 9900 9898 9897 9896 9895 9893 9892 9890 9888 9888 9887 9885 9883 9883 9884 9886 9887 9887 9888 9890 9893 9897 9900 9903 9903 9904 9906 9906 9908 9912 9914 9915 9916 9916 9916 9916 9916 9920 9927 9935 9943 9952 9964 9972 9976 9978 9980 9982 9981 9978 9979 9986 9996 10004 10010 10016 10022 10029 10035 10039 10040 10038 10038 10041 10046 10049 10052 10054 10055 10057 10059 10061 10063 10065 10067 10068 10069 10069 10071 10072 10074
9896 9892 9890 9889 9888 9886 9884 9884 9883 9881 9880 9877 9875 9875 9875 9875 9874 9871 9869 9870 9872 9874 9875 9876 9879 9883 9886 9888 9889 9889 9890 9891 9894 9897 9899 9900 9901 9901 9901 9902 9902 9905 9911 9921 9932 9942 9951 9957 9960 9962 9965 9967 9967 9963 9962 9968 9977 9984 9992 10000 10007 10013 10018 10022 10024 10024 10023 10025 10027 10030 10034 10037 10039 10042 10045 10047 10049 10052 10053 10054 10054 10054 10056 10058 10061
9882 9879 9877 9877 9876 9874 9873 9871 9870 9869 9868 9866 9865 9863 9863 9863 9863 9861 9858 9857 9857 9859 9862 9865 9867 9869 9871 9873 9874 9875 9876 9878 9880 9883 9885 9885 9885 9886 9887 9889 9890 9893 9900 9910 9922 9931 9936 9940 9942 9944 9947 9949 9950 9947 9948 9953 9960 9966 9974 9983 9991 9997 10001 10004 10007 10009 10008 10008 10009 10012 10017 10022 10026 10028 10031 10034 10036 10038 10038 10038 10039 10040 10042 10044 10046
9871 9868 9865 9864 9863 9862 9861 9860 9859 9858 9856 9855 9854 9852 9851 9850 9850 9849 9849 9847 9845 9846 9848 9852 9856 9858 9859 9859 9860 9861 9863 9865 9867 9869 9870 9871 9871 9871 9874 9878 9880 9882 9889 9899 9908 9914 9919 9922 9924 9925 9927 9931 9933 9932 9933 9938 9945 9952 9959 9966 9973 9979 9983 9986 9990 9991 9991 9991 9993 9997 10002 10007 10011 10014 10017 10020 10021 10022 10022 10022 10024 10026 10028 10030 10032
9861 9858 9855 9853 9851 9849 9849 9849 9848 9847 9846 9844 9842 9841 9839 9838 9837 9837 9837 9837 9836 9835 9835 9838 9843 9847 9848 9847 9847 9848 9850 9852 9854 9855 9856 9857 9857 9858 9862 9866 9868 9870 9876 9884 9891 9896 9901 9904 9905 9906 9909 9914 9917 9919 9920 9925 9932 9938 9942 9948 9955 9962 9966 9969 9971 9973 9973 9975 9979 9984 9989 9993 9997 10000 10002 10004 10005 10005 10005 10007 10010 10013 10015 10017 10018
9850 9848 9845 9842 9840 9838 9837 9837 9837 9836 9835 9834 9832 9830 9829 9827 9826 9826 9826 9826 9826 9826 9825 9825 9829 9833 9836 9836 9834 9835 9837 9839 9840 9842 9843 9843 9845 9847 9849 9852 9854 9857 9863 9869 9873 9878 9884 9887 9888 9890 9894 9899 9902 9905 9907 9912 9918 9922 9926 9931 9939 9945 9948 9951 9954 9957 9960 9963 9966 9971 9976 9979 9981 9983 9985 9987 9988 9989 9990 9993 9997 9999 10001 10003 10004
9839 9838 9836 9833 9830 9828 9826 9825 9826 9825 9825 9824 9822 9820 9819 9818 9816 9815 9815 9815 9815 9815 9815 9815 9816 9819 9822 9824 9823 9823 9825 9826 9827 9828 9829 9830 9832 9834 9836 9839 9842 9845 9849 9853 9858 9864 9870 9871 9872 9877 9882 9886 9888 9891 9893 9897 9901 9905 9910 9916 9922 9927 9930 9935 9941 9945 9948 9951 9954 9958 9961 9964 9966 9967 9968 9970 9972 9974 9976 9979 9982 9985 9987 9989 9990
9828 9827 9826 9824 9821 9819 9817 9816 9815 9814 9814 9813 9812 9810 9809 9808 9807 9806 9805 9805 9805 9805 9805 9805 9805 9806 9809 9812 9812 9813 9813 9814 9815 9816 9817 9818 9820 9823 9825 9828 9831 9833 9835 9839 9846 9853 9857 9857 9859 9865 9871 9874 9874 9876 9878 9880 9884 9889 9895 9901 9906 9910 9916 9923 9929 9933 9935 9937 9941 9944 9946 9948 9949 9951 9953 9956 9958 9960 9963 9965 9968 9971 9973 9975 9976
9818 9817 9816 9814 9812 9810 9809 9807 9806 9805 9804 9803 9802 9801 9800 9799 9798 9797 9796 9795 9795 9795 9796 9796 9796 9796 9798 9800 9801 9801 9802 9803 9804 9805 9806 9807 9810 9812 9816 9818 9819 9819 9821 9828 9836 9843 9844 9844 9847 9853 9858 9860 9860 9861 9862 9864 9868 9875 9881 9887 9891 9896 9903 9910 9915 9918 9921 9924 9927 9929 9931 9933 9935 9937 9941 9944 9946 9947 9949 9951 9953 9956 9958 9960 9962
9809 9807 9806 9804 9803 9801 9800 9798 9797 9796 9795 9794 9792 9791 9791 9790 9789 9788 9787 9787 9786 9786 9786 9786 9786 9787 9787 9789 9790 9790 9791 9792 9794 9795 9796 9797 9799 9802 9805 9807 9807 9808 9812 9819 9826 9831 9832 9831 9834 9840 9844 9845 9845 9846 9847 9849 9854 9861 9867 9873 9879 9884 9891 9897 9901 9904 9908 9911 9914 9916 9917 9919 9922 9925 9928 9931 9933 9934 9936 9938 9939 9941 9943 9944 9946
9800 9797 9795 9794 9793 9792 9791 9789 9788 9787 9786 9785 9784 9782 9782 9781 9780 9779 9779 9778 9777 9777 9777 9777 9777 9777 9778 9779 9780 9781 9781 9782 9783 9784 9785 9787 9789 9792 9794 9796 9797 9800 9804 9810 9815 9817 9818 9819 9821 9826 9830 9831 9832 9832 9833 9836 9843 9851 9856 9862 9869 9874 9880 9885 9888 9890 9894 9898 9901 9903 9904 9906 9909 9912 9914 9916 9918 9920 9922 9924 9925 9927 9928 9929 9930
9791 9789 9786 9784 9783 9782 9781 9780 9779 9778 9777 9776 9775 9774 9773 9772 9771 9770 9770 9769 9769 9769 9768 9768 9768 9768 9768 9769 9770 9771 9772 9773 9773 9774 9775 9777 9779 9781 9784 9786 9788 9792 9796 9800 9803 9805 9806 9807 9810 9814 9818 9820 9821 9821 9823 9829 9837 9844 9848 9853 9859 9864 9869 9874 9876 9878 9881 9884 9886 9889 9891 9893 9896 9898 9900 9902 9903 9904 9906 9909 9910 9912 9914 9915 9916
9784 9781 9779 9777 9775 9773 9773 9772 9770 9769 9768 9767 9766 9766 9765 9763 9763 9762 9761 9760 9760 9760 9760 9760 9760 9759 9759 9760 9761 9762 9763 9764 9764 9765 9766 9767 9769 9771 9774 9776 9779 9783 9786 9789 9791 9793 9795 9796 9799 9803 9806 9808 9810 9811 9815 9822 9830 9835 9838 9842 9847 9852 9857 9861 9863 9865 9867 9869 9871 9873 9876 9879 9882 9884 9886 9887 9888 9890 9892 9894 9896 9898 9899 9900 9901
9776 9774 9772 9770 9768 9766 9765 9764 9762 9761 9760 9759 9758 9757 9756 9755 9754 9754 9752 9752 9751 9751 9751 9751 9751 9751 9751 9751 9752 9753 9754 9755 9756 9757 9757 9759 9760 9762 9764 9767 9769 9773 9776 9779 9780 9782 9784 9785 9787 9791 9794 9796 9798 9801 9807 9814 9820 9824 9827 9831 9834 9838 9842 9846 9849 9851 9852 9854 9857 9859 9861 9863 9866 9869 9871 9873 9874 9876 9877 9879 9881 9882 9883 9884 9885
9767 9766 9765 9763 9761 9759 9757 9756 9754 9753 9752 9750 9750 9749 9747 9746 9746 9745 9744 9744 9743 9742 9742 9743 9743 9743 9743 9743 9744 9744 9745 9746 9747 9748 9749 9750 9752 9753 9755 9757 9760 9763 9766 9768 9770 9772 9773 9774 9777 9779 9782 9785 9788 9793 9799 9804 9808 9811 9815 9819 9822 9825 9828 9831 9834 9836 9838 9840 9843 9845 9847 9849 9852 9853 9855 9857 9858 9860 9862 9863 9865 9866 9867 9868 9869
9759 9758 9757 9756 9754 9752 9750 9748 9746 9745 9744 9743 9742 9741 9740 9738 9737 9737 9736 9736 9735 9735 9735 9735 9734 9735 9735 9735 9736 9736 9737 9737 9738 9739 9740 9742 9743 9744 9746 9748 9750 9753 9755 9757 9760 9762 9763 9764 9766 9769 9771 9775 9779 9784 9788 9792 9795 9798 9801 9804 9807 9811 9813 9815 9818 9821 9824 9826 9828 9830 9833 9835 9837 9838 9840 9841 9842 9844 9846 9847 9849 9851 9852 9853 9854
9752 9751 9750 9748 9747 9745 9743 9741 9739 9737 9736 9735 9734 9733 9732 9731 9730 9729 9728 9728 9727 9727 9727 9727 9727 9727 9727 9727 9728 9728 9729 9729 9730 9731 9732 9733 9735 9736 9738 9740 9741 9743 9746 9747 9749 9752 9753 9755 9757 9759 9762 9766 9769 9772 9776 9779 9781 9784 9787 9790 9793 9796 9799 9801 9803 9806 9808 9811 9814 9816 9818 9821 9823 9824 9826 9827 9828 9830 9832 9833 9835 9837 9838 9839 9840
9745 9744 9743 9741 9739 9737 9736 9734 9733 9731 9729 9727 9726 9725 9724 9723 9722 9722 9721 9720 9720 9720 9719 9719 9720 9720 9720 9720 9720 9720 9721 9722 9722 9723 9724 9725 9727 9728 9730 9731 9733 9735 9737 9739 9740 9743 9744 9746 9748 9750 9752 9755 9758 9761 9763 9766 9768 9771 9774 9777 9780 9783 9786 9788 9791 9793 9795 9798 9801 9803 9806 9809 9811 9812 9814 9815 9816 9817 9819 9820 9822 9823 9824 9825 9825
9737 9737 9735 9734 9732 9730 9728 9727 9725 9724 9722 9721 9719 9718 9717 9716 9715 9714 9714 9713 9713 9712 9712 9712 9712 9712 9713 9713 9713 9713 9714 9714 9715 9716 9717 9718 9719 9720 9721 9723 9724 9726 9728 9730 9732 9734 9735 9737 9738 9740 9742 9744 9747 9750 9752 9755 9757 9760 9764 9767 9770 9773 9775 9778 9780 9783 9785 9787 9790 9792 9795 9797 9799 9801 9802 9803 9804 9806 9807 9808 9810 9811 9811 9812 9812
9730 9729 9728 9727 9725 9723 9722 9720 9719 9717 9715 9714 9712 9711 9710 9709 9708 9707 9707 9706 9706 9706 9706 9706 9705 9706 9706 9706 9706 9707 9707 9708 9708 9709 9709 9710 9711 9713 9713 9715 9716 9718 9720 9722 9724 9725 9727 9728 9730 9731 9733 9735 9738 9740 9743 9745 9748 9751 9754 9757 9760 9762 9765 9767 9770 9772 9774 9776 9778 9780 9783 9785 9787 9789 9791 9792 9794 9795 9796 9797 9798 9799 9799 9799 9799